Location: Lower Kingswood
(51.2667°N, 0.2167°W)
Time: 18:58:50
(UTC+00:00)

Iridium 4 Rocket - Pass Details

Date: 26 September 2023
Orbit: 583 x 898 km, 86.9° (Epoch: 08 December)

Event Time Altitude Azimuth Distance (km) Brightness Sun altitude
Rises 03:39:10 0° 351° (N) 3,415 7.1 -21.0°
Reaches altitude 10° 03:41:47 10° 344° (NNW) 2,434 6.2 -20.7°
Maximum altitude 03:46:49 39° 278° (W) 1,156 4.0 -20.0°
Enters shadow 03:47:14 38° 266° (W) 1,164 3.9 -19.9°
